Погода Имени Попова

Погода Имени Попова : погода сейчас, прогноз погоды и архив. Всё, что Вы хотите узнать о погоде Имени Попова!

Поиск расширенной информации на нашем сайте:

Другие новости

Новости СМИ2

Главная страница сайта

Новости сайта

03.07.2017

Напоминаем, что на нашем специализированном сайте Метеоцентр.Азия вы можете получить высокодетализированные автоматические прогнозы погоды по пунктам России, СНГ и мира в авиационном формате (включающие направление и скорость ветра, видимость, явления погоды, количество и форму облачности, нижнюю и верхнюю границу облачности).


Погода Имени Попова - сегодня

Время (UTC), дата Ветер
(°,м/с) 
Видим.   Явления Облачность Т
(°С)
Тd
(°С)
f(%) Тe
(°С)
Pmin
(гПа)
dP
(гПа)
Po
(мм)
O2
(г/м3)
Тmin Tmax R s Состояние
почвы
12 23.07.17 250 (З) 20000 м    10/10 1000 м 
[Sc]
+9.2 +8 92 +9  1020.5  -1  765  297           
15 23.07.17 210 (ЮЗ) 20000 м    10/10 800 м 
[Sc]
+8.3 +6.8 90 +8  1019.1  -1.4  764  298    +13.8       
18 23.07.17 220 (ЮЗ) 20000 м    10/10 700 м 
[Sc]
+7.1 +6.3 95 +7  1018  -1.2  763  299           
21 23.07.17 250 (З) 20000 м    10/10 540 м 
[Sc]
+6.5 +6 97 +6  1016.5  -1.5  762  299           
00 24.07.17 250 (З) 20000 м  в посл. час туман  10/10 360 м 
[Sc]
+5.9 +5.5 97 +4  1015.6  -0.9  761  299           
03 24.07.17 240 (ЮЗ) 20000 м    10/10 400 м 
[Sc]
+6.7 +6.2 97 +5  1014.5  -1.1  760  298  +5.8         
06 24.07.17 280 (З) 0200 м  туман  ?/?  
+6 +5.8 99 +5  1014.6  760  299           
09 24.07.17 360 (С) 20000 м  {туман}  10/10 270 м 
[St]
+8.1 +7.2 94 +7  1014.7  0.2  761  296           
12 24.07.17 010 (С) 20000 м  {туман}  10/10 500 м 
[Sc]
+8.1 +5.2 82 +6  1015.7  0.9  761  297           
15 24.07.17 020 (С) 20000 м    10/10 480 м 
[Sc]
+8.5 +6.1 85 +7  1016.5  0.8  762  297    +9.6       
18 24.07.17 050 (СВ) 20000 м    10/10 630 м 
[Sc]
+6.7 +5.1 90 +5  1018.1  1.6  763  299           
21 24.07.17 030 (СВ) 20000 м    10/10 480 м 
[Sc]
+6.1 +3.6 84 +5  1018.9  0.8  764  300           
00 25.07.17 050 (СВ) 20000 м    10/10 570 м 
[Sc]
+6.1 +3.5 83 +6  1019.4  0.5  764  301           
03 25.07.17 020 (С) 20000 м    10/10 540 м 
[Sc]
+6.4 +3.2 80 +6  1019.4  764  300  +5.9         
06 25.07.17 280 (З) 20000 м    10/10 720 м 
[Sc]
+6.6 +3.6 81 +6  1019.2  -0.2  764  300           
09 25.07.17 300 (СЗ) 20000 м    10/10 840 м 
[Sc]
+7.3 +3.7 78 +7  1019  -0.2  764  299           
12 25.07.17 250 (З) 20000 м    10/10 800 м 
[Sc]
+7.4 +3.2 75 +7  1018.5  -0.5  763  299           
15 25.07.17 270 (З) 20000 м    10/10 700 м 
[Sc]
+6.5 +3.3 80 +7  1017.5  -1  763  300    +7.8       
18 25.07.17 200 (Ю) 20000 м    10/10 900 м 
[Sc]
+5.9 +3.5 85 +6  1017.3  -0.2  762  300           
21 25.07.17 200 (Ю) 20000 м    10/10 900 м 
[Sc]
+5.6 +3.9 89 +5  1017.1  -0.2  762  300           
00 26.07.17 200 (Ю) 20000 м    10/10 800 м 
[Sc]
+6 +4.3 89 +5  1016.3  -0.7  762  300           
03 26.07.17 200 (Ю) 20000 м    10/10 600 м 
[Sc]
+6.9 +4.8 86 +6  1015.9  -0.4  761  299  +5.5         
06 26.07.17 220 (ЮЗ) 20000 м    10/10 660 м 
[Sc]
+7.7 +5.4 85 +7  1016.2  0.2  762  298           
09 26.07.17 230 (ЮЗ) 20000 м    10/0 средняя 
[Ac und]
+8.7 +6 83 +8  1015.9  -0.3  761  296           
12 26.07.17 240 (ЮЗ) 20000 м    1/1 300 м 
[Sc]
+9.2 +5.8 79 +9  1015.6  -0.3  761  296           
Время (UTC), дата Ветер
(°,м/с) 
Видим.   Явления Облачность Т
(°С)
Тd
(°С)
f(%) Тe
(°С)
Pmin
(гПа)
dP
(гПа)
Po
(мм)
O2
(г/м3)
Тmin Tmax R s Состояние
почвы

Для получения пояснительной информации подведите курсор к названию столбца.

ПОГОДА Имени Попова - архив

Всё, что Вы хотите узнать о погоде Имени Попова - удобно и подробно!

Выберите нужную дату (начиная с 1 января 2015* года) и нажмите кнопку "Найти".
Будут отображены архивные сводки погоды по пункту Имени Попова, начиная с указанной даты.


Отображать данные в формате CSV (для использования в таблицах Excel)


Внимание! Наш архив погоды предназначен исключительно для личного некоммерческого использования в познавательных целях. Если Вам необходимы официальные справки о состоянии погоды (для производственных, юридических, коммерческих и т.п. целей), обращайтесь в органы Росгидромета.

*Примечание: данная дата относится к архиву по метеостанциям СССР (Россия, СНГ, Балтия).
Архив по метеостанциям Зарубежной Европы и Азии (кроме Китая) хранится 10 дней, по другим регионам земного шара (Китай, Африка, Америка, Австралия, Океания) - 1 день.

Имени Попова - район местоположения метеостанции


Название, широта, долгота, высота метеостанции:
Имени Попова 73.3°ш. 70.1°д. 7 м над ур. моря [Российская Федерация]

Дополнительная информация

В oтличие oт бoльшинства пoгoдных сайтoв мы публикуем пoдрoбную метеoинфoрмацию в детальнoм прoфессиoнальнoм фoрмате.

Характеристики температуры и влажнoсти вoздуха измеряются на высoте 2 м в тени вдали oт зданий и деревьев.
Скoрoсть ветра измеряется на высoте 10 м (на урoвне рoста челoвека скoрoсть ветра ниже в 1.5-2 раза). Если метеoстанция нахoдится в гoрoде или в лесу, тo скoрoсть ветра занижена на 2-4 м/с пo сравнению с oткрытым местoм. Скoрoсть ветра над акватoриями крупных рек и oзёр, а также на вершинах хoлмoв на 2-5 м/с выше, чем в oбычных услoвиях.
Атмoсфернoе давление в разных тoчках местнoсти мoжет значительнo oтличаться oт давления на метеoстанции, в зависимoсти oт услoвий рельефа (при пoдъёме на 10 м давление пoнижается примернo на 1 мм рт.ст.).